Date,TemperatureHighF,TemperatureAvgF,TemperatureLowF,DewpointHighF,DewpointAvgF,DewpointLowF,HumidityHigh,HumidityAvg,HumidityLow,PressureMaxIn,PressureMinIn,WindSpeedMaxMPH,WindSpeedAvgMPH,GustSpeedMaxMPH,PrecipitationSumIn
2013-1-1,31.5,23.0,10.4,18.2,2.1,-12.1,66,41,32,18.26,18.26,11,0,15,0.00
2013-1-2,25.7,10.7,1.4,2.3,-12.5,-22.6,50,34,30,18.26,18.26,13,0,28,0.00
2013-1-3,19.6,7.0,-2.6,-7.2,-17.6,-26.0,34,31,25,18.26,18.26,0,0,3,0.00
2013-1-4,35.6,20.9,1.2,16.5,-0.7,-22.1,52,39,32,18.26,18.26,8,0,10,0.00
2013-1-5,35.4,28.4,16.5,18.5,8.3,2.2,58,44,30,18.26,18.26,7,0,14,0.00
2013-1-6,35.6,26.3,15.1,21.3,11.9,2.8,71,55,41,18.26,18.26,0,0,0,0.00
2013-1-7,33.1,24.8,8.6,22.7,7.2,-3.9,71,48,30,18.26,18.26,8,0,10,0.00
2013-1-8,42.1,20.8,4.8,14.1,4.3,-7.7,67,50,28,18.26,18.26,0,0,3,0.00
2013-1-9,39.7,26.8,15.3,22.9,13.1,6.4,72,57,39,18.26,18.26,10,0,12,0.00
2013-1-10,42.3,36.8,29.5,25.4,13.9,10.1,66,40,31,18.26,18.26,12,0,22,0.00
2013-1-11,38.1,30.8,21.6,27.0,16.3,10.0,75,57,33,18.26,18.26,0,0,5,0.00
2013-1-12,40.1,36.0,33.8,30.4,28.2,26.8,75,73,67,18.26,18.26,0,0,0,0.00
2013-1-13,42.1,37.1,34.3,33.8,29.7,27.4,76,74,65,18.26,18.26,0,0,0,0.00
2013-1-14,55.8,39.8,34.0,39.2,24.7,14.5,76,57,27,18.26,18.26,8,0,10,0.00
2013-1-15,39.4,32.7,26.8,22.2,14.5,8.7,70,48,30,18.26,18.26,8,0,10,0.00
2013-1-16,33.3,30.8,27.3,23.9,21.1,15.3,73,67,53,18.26,18.26,0,0,0,0.00
2013-1-17,39.6,27.1,17.4,23.3,10.4,-8.6,75,52,30,18.26,18.26,7,0,15,0.00
2013-1-18,20.7,12.5,6.3,-8.1,-15.0,-20.7,32,28,22,18.26,18.26,8,0,14,0.00
2013-1-19,35.4,24.0,10.4,14.3,4.3,-13.8,54,43,32,18.26,18.26,0,0,0,0.00
2013-1-20,42.4,29.0,19.4,27.0,8.2,-12.6,71,45,22,18.26,18.26,18,1,25,0.00
2013-1-21,29.3,19.8,8.4,11.5,-5.1,-17.5,64,35,22,18.26,18.26,11,0,17,0.00
2013-1-22,24.8,16.2,1.0,10.2,-1.6,-15.1,63,46,24,18.26,18.26,10,0,14,0.00
2013-1-23,7.0,1.0,-3.8,-9.5,-15.1,-19.7,46,46,46,18.26,18.26,8,0,14,0.00
2013-1-24,14.9,3.1,-5.6,-3.3,-18.6,-25.9,46,37,24,18.26,18.26,10,0,15,0.00
2013-1-25,19.9,9.9,0.7,-9.8,-19.2,-27.7,31,25,22,18.26,18.26,3,0,10,0.00
2013-1-26,19.0,12.8,7.7,-6.4,-13.4,-19.9,39,30,23,18.26,18.26,8,0,14,0.00
2013-1-27,23.5,14.1,7.7,-5.8,-15.4,-21.5,34,25,22,18.26,18.26,3,0,9,0.00
2013-1-28,23.5,16.3,5.2,10.8,-4.8,-22.3,64,41,24,18.26,18.26,0,0,0,0.00
2013-1-29,37.4,27.2,12.6,25.5,13.6,3.2,75,57,37,18.26,18.26,0,0,0,0.00
2013-1-30,37.0,34.5,32.5,29.4,27.4,25.5,76,75,72,18.26,18.26,0,0,0,0.00
2013-1-31,54.0,39.0,25.0,44.6,20.7,-2.9,76,51,28,18.26,18.26,16,1,28,0.00
2013-2-1,31.1,22.7,16.0,9.8,-2.3,-9.4,52,34,24,18.26,18.26,9,0,11,0.00
2013-2-2,27.0,19.1,9.5,5.5,-3.4,-11.4,51,37,24,18.26,18.26,2,0,6,0.00
2013-2-3,32.0,23.1,12.4,9.1,3.8,-0.5,68,45,30,18.26,18.26,0,0,0,0.00
2013-2-4,29.5,21.4,14.5,6.7,-4.1,-15.4,57,34,20,18.26,18.26,9,0,14,0.00
2013-2-5,27.0,17.5,5.5,1.2,-10.0,-20.0,43,29,21,18.26,18.26,0,0,5,0.00
2013-2-6,37.4,25.0,15.4,10.4,1.6,-15.4,58,37,23,18.26,18.26,8,0,15,0.00
2013-2-7,23.2,17.0,8.4,-10.1,-14.6,-21.2,24,23,22,18.26,18.26,8,0,8,0.00
2013-2-8,21.0,17.8,14.5,10.2,0.5,-13.6,70,49,22,18.26,18.26,0,0,3,0.00
2013-2-9,20.5,15.8,11.8,12.9,3.3,-7.6,72,58,40,18.26,18.26,11,0,14,0.00
2013-2-10,33.3,18.7,6.8,0.8,-6.0,-12.5,52,35,20,18.26,18.26,11,0,14,0.00
2013-2-11,28.6,20.7,9.5,21.2,8.4,-6.8,74,59,44,18.26,18.26,0,0,0,0.00
2013-2-12,43.9,35.6,27.0,25.0,18.1,13.1,75,51,32,18.26,18.26,12,0,20,0.00
2013-2-13,40.8,32.4,25.7,15.5,11.9,7.9,59,44,29,18.26,18.26,0,0,0,0.00
2013-2-14,41.0,30.1,23.5,15.5,11.8,7.4,63,48,29,18.26,18.26,0,0,5,0.00
2013-2-15,48.6,32.5,21.4,18.5,14.1,10.7,67,49,26,18.26,18.26,4,0,13,0.00
2013-2-16,40.1,32.5,24.8,20.3,9.1,-7.0,65,39,24,18.26,18.26,0,0,3,0.00
2013-2-17,24.8,20.7,18.3,-2.0,-5.9,-8.4,40,31,24,18.26,18.26,8,0,13,0.00
2013-3-6,36.9,34.3,32.5,23.0,16.1,13.1,58,47,42,18.26,18.26,0,0,5,0.00
2013-3-7,38.7,33.7,31.3,24.3,17.2,11.7,70,52,35,18.26,18.26,0,0,5,0.00
2013-3-8,44.6,34.8,24.4,23.8,17.6,10.1,70,52,28,18.26,18.26,0,0,4,0.00
2013-3-9,54.9,35.0,19.2,18.9,13.2,5.3,72,47,15,18.26,18.26,0,0,0,0.00
2013-3-10,48.6,35.8,21.4,20.8,15.4,10.6,71,47,22,18.26,18.26,0,0,4,0.00
2013-3-11,52.2,41.4,33.4,25.2,20.3,15.4,65,45,26,18.26,18.26,0,0,0,0.00
2013-3-12,47.1,41.9,37.9,37.4,32.2,24.3,72,69,53,29.87,18.26,0,0,2,0.00
2013-3-13,49.1,39.4,27.9,35.6,21.1,11.3,72,51,28,29.87,29.87,7,0,10,0.00
2013-3-14,39.4,29.1,18.3,19.9,6.9,-5.9,72,41,23,29.87,29.87,7,0,10,0.00
2013-3-15,40.5,26.5,15.1,23.2,3.8,-8.5,73,40,20,29.87,29.87,2,0,6,0.00
2013-3-16,36.9,27.9,18.7,12.2,3.6,-3.5,61,37,22,29.87,29.87,2,0,5,0.00
2013-3-17,33.4,23.7,14.4,6.4,-2.5,-14.4,62,34,20,29.87,29.87,9,0,17,0.00
2013-3-18,40.3,25.7,8.2,9.2,-7.0,-17.7,40,24,18,29.87,29.87,0,0,0,0.00
2013-3-19,32.7,28.8,25.3,22.8,18.7,10.4,72,65,43,29.87,29.87,0,0,5,0.00
2013-3-20,37.4,29.9,23.2,18.0,11.8,6.5,70,49,30,29.87,29.87,9,0,14,0.00
2013-3-21,40.1,28.2,12.9,9.7,4.7,-1.1,66,40,18,29.87,29.87,0,0,2,0.00
2013-3-22,41.4,30.7,19.0,17.5,7.6,2.1,57,39,21,29.87,29.87,3,0,8,0.00
2013-3-23,42.1,32.8,24.6,13.0,10.0,5.7,52,39,26,29.87,29.87,12,0,21,0.00
2013-3-24,44.1,36.2,26.2,14.0,12.1,8.6,57,38,28,29.87,29.87,4,0,11,0.00
2013-3-25,48.4,34.6,21.2,19.0,14.3,10.9,70,46,24,29.87,29.87,0,0,5,0.00
2013-3-26,48.4,38.9,28.9,24.3,13.5,3.6,69,39,19,29.87,29.87,0,0,4,0.00
2013-3-27,53.4,38.0,23.4,25.3,16.2,10.2,70,45,21,29.87,29.87,2,0,8,0.00
2013-3-28,52.7,42.0,34.0,28.0,21.4,15.9,70,46,26,29.87,29.87,0,0,5,0.00
2013-3-29,54.3,42.4,32.4,32.0,23.1,17.1,68,48,26,29.87,29.87,0,0,5,0.00
2013-3-30,53.8,39.5,27.5,27.5,14.4,0.7,73,43,15,29.87,29.87,0,0,6,0.00
2013-3-31,59.7,41.1,22.5,33.8,13.4,6.3,68,38,14,29.87,29.87,3,0,8,0.00
2013-4-1,57.7,41.3,29.8,37.4,24.1,0.4,72,53,25,29.87,29.87,11,0,17,0.00
2013-4-2,41.2,31.0,24.1,3.9,-0.6,-3.7,32,26,21,29.87,29.87,13,0,18,0.00
2013-4-3,43.3,33.6,24.6,4.2,-0.3,-3.9,32,24,18,29.87,29.87,14,0,17,0.00
2013-4-4,54.1,39.0,27.7,13.0,4.1,-2.9,43,24,15,29.87,29.87,0,0,0,0.00
2013-4-5,59.4,42.2,31.3,15.5,11.6,4.8,49,31,14,29.87,29.87,4,0,10,0.00
2013-4-6,42.3,32.6,24.4,6.0,-0.8,-6.2,42,24,18,29.87,29.87,6,0,15,0.00
2013-4-7,58.3,40.9,24.3,21.8,9.7,1.3,50,29,17,29.87,29.87,4,0,8,0.00
2013-4-8,59.2,46.7,34.7,29.0,20.3,11.2,70,39,17,29.87,29.87,0,0,7,0.00
2013-4-9,61.2,47.2,39.9,37.4,30.6,20.5,71,54,29,29.87,29.87,3,0,9,0.00
2013-4-10,63.1,49.7,43.0,39.2,34.1,28.8,71,57,31,29.87,29.87,2,0,5,0.00
2013-4-11,51.4,44.3,39.7,37.4,17.4,2.4,70,38,17,29.87,29.87,0,0,0,0.00
2013-4-12,39.9,34.2,32.0,25.3,18.7,4.4,72,56,23,29.87,29.87,0,0,4,0.00
2013-4-13,53.6,42.2,32.7,29.9,24.9,19.3,71,53,28,29.87,29.87,0,0,3,0.00
2013-4-14,53.6,41.8,32.7,29.1,23.9,16.3,71,52,26,29.87,29.87,7,0,11,0.00
2013-4-15,58.3,42.7,27.1,29.6,19.5,13.7,73,46,19,29.87,29.87,0,0,4,0.00
2013-4-16,66.0,49.7,33.3,44.6,30.4,21.5,67,50,23,29.87,29.87,5,0,10,0.00
2013-4-17,61.9,51.3,36.3,44.6,21.0,9.7,69,34,16,29.87,29.87,5,0,8,0.00
2013-4-18,62.6,47.7,29.5,23.9,17.3,9.7,67,35,16,29.87,29.87,0,0,6,0.00
2013-4-19,75.0,62.3,50.9,51.8,39.1,13.8,66,43,21,29.87,29.87,4,0,13,0.00
2013-4-20,60.6,49.6,37.2,50.0,21.6,0.9,68,38,17,29.87,29.87,11,0,17,0.00
2013-4-21,51.3,40.2,30.0,13.1,5.3,0.0,47,24,16,29.87,29.87,4,0,10,0.00
2013-4-22,55.9,40.6,25.3,18.5,11.7,3.6,63,35,15,29.87,29.87,0,0,7,0.00
2013-4-23,42.3,37.3,28.2,32.0,23.2,17.2,69,57,42,29.87,29.87,0,0,2,0.00
2013-4-24,77.7,57.8,41.0,33.8,27.5,18.3,69,38,13,29.87,29.87,3,0,6,0.00
2013-4-25,63.1,53.7,36.9,41.0,20.7,9.7,49,29,16,29.87,29.87,10,0,15,0.00
2013-4-26,63.0,46.3,29.1,32.0,19.0,12.3,64,39,16,29.87,29.87,0,0,3,0.00
2013-4-27,67.1,50.8,32.0,29.9,21.9,14.2,70,39,15,29.87,29.87,2,0,5,0.00
2013-4-28,70.3,53.2,34.0,29.0,21.9,14.2,69,36,14,29.87,29.87,0,0,4,0.00
2013-4-29,73.2,56.6,39.6,29.1,23.2,17.3,61,32,14,29.87,29.87,0,0,3,0.00
2013-4-30,73.8,61.7,48.9,28.8,21.5,12.0,41,23,13,29.87,29.87,0,0,4,0.00
2013-5-1,76.3,58.5,37.0,26.2,21.3,14.2,61,29,13,29.87,29.87,0,0,5,0.00
2013-5-2,84.4,58.4,39.9,32.0,22.4,9.7,61,30,11,29.87,29.87,0,0,6,0.00
2013-5-3,68.7,53.7,35.4,35.6,24.7,16.2,64,36,17,29.87,29.87,0,0,4,0.00
2013-5-4,72.7,56.0,39.2,37.4,26.4,17.3,70,39,14,29.87,29.87,0,0,6,0.00
2013-5-5,72.5,53.7,33.8,28.2,22.1,15.7,67,35,14,29.87,29.87,0,0,5,0.00
2013-5-6,75.6,57.4,36.1,35.6,25.5,16.4,68,36,13,29.87,29.87,0,0,4,0.00
2013-5-7,82.4,63.1,41.4,42.8,30.4,18.3,68,37,12,29.87,29.87,0,0,4,0.00
2013-5-8,76.1,62.7,48.7,55.4,44.5,35.6,68,54,24,29.87,29.87,3,0,9,0.00
2013-5-9,73.8,63.3,57.9,50.0,46.6,39.2,68,56,31,29.87,29.87,0,0,4,0.00
2013-5-10,80.1,65.9,56.8,57.2,45.3,35.6,67,51,22,29.87,29.87,0,0,4,0.00
2013-5-11,70.0,62.5,58.5,53.6,50.2,46.4,67,64,45,29.87,29.87,2,0,6,0.00
2013-5-12,71.6,59.0,45.0,50.0,33.6,11.9,68,42,19,29.87,29.87,5,0,8,0.00
2013-5-13,57.9,47.3,38.8,26.7,16.6,12.3,59,31,17,29.87,29.87,3,0,9,0.00
2013-5-14,63.5,47.6,33.6,29.4,19.5,9.7,69,38,16,29.87,29.87,2,0,6,0.00
2013-5-15,71.1,48.5,30.4,42.8,27.7,15.7,67,51,14,29.87,29.87,4,0,7,0.00
2013-5-16,80.2,62.1,47.3,42.8,30.1,17.3,69,38,12,29.87,29.87,11,0,13,0.00
2013-5-17,68.9,56.1,46.0,33.8,26.6,16.1,60,35,15,29.87,29.87,0,0,6,0.00
2013-5-18,74.8,57.7,39.7,37.4,28.2,18.0,68,39,13,29.87,29.87,0,0,2,0.00
2013-5-19,72.5,56.4,43.7,48.2,37.8,30.6,68,53,22,29.87,29.87,0,0,4,0.00
2013-5-20,75.0,62.8,54.0,53.6,47.4,42.8,68,58,37,29.87,29.87,0,0,2,0.00
2013-5-21,71.8,59.5,51.3,50.0,45.4,39.2,68,60,40,29.87,29.87,0,0,6,0.00
2013-5-22,65.5,56.5,50.7,48.2,44.1,39.2,69,63,45,29.87,29.87,0,0,2,0.00
2013-5-23,68.4,60.9,53.1,55.4,48.3,42.8,68,63,52,29.87,29.87,0,0,0,0.00
2013-5-24,71.1,60.9,47.7,57.2,44.8,32.0,67,56,33,29.87,29.87,3,0,6,0.00
2013-5-25,48.6,45.1,36.3,37.4,33.1,26.0,70,63,48,29.87,29.87,0,0,0,0.00
2013-5-26,59.0,46.7,36.9,30.7,27.3,22.8,70,49,28,29.87,29.87,5,0,8,0.00
2013-5-27,70.2,52.6,35.1,37.4,24.8,15.7,69,41,14,29.87,29.87,4,0,8,0.00
2013-5-28,76.5,57.6,38.7,35.6,26.7,18.3,67,38,13,29.87,29.87,3,0,6,0.00
2013-5-29,57.7,53.7,52.2,44.6,40.5,33.8,66,60,49,29.87,29.87,0,0,0,0.00
2013-7-5,95.9,86.5,73.9,59.0,53.2,44.6,56,34,18,17.72,17.72,5,1,9,0.00
2013-7-6,91.8,79.4,69.4,59.0,51.8,41.0,58,41,20,17.72,17.72,5,1,10,0.00
2013-7-7,91.8,76.7,66.4,60.8,52.3,41.0,58,45,19,17.72,17.72,4,0,6,0.00
2013-7-8,87.1,74.0,67.3,62.6,56.4,51.8,58,54,31,17.72,17.72,5,0,8,0.00
2013-7-9,80.6,71.4,66.7,55.4,53.5,51.8,58,53,37,17.72,17.72,6,0,8,0.00
2013-7-10,76.1,69.1,66.0,57.2,53.3,50.0,59,57,49,17.72,17.72,5,0,8,0.00
2013-7-11,85.8,74.0,65.1,60.8,52.0,42.8,58,48,23,17.72,17.72,5,0,9,0.00
2013-7-12,85.1,71.4,60.8,50.0,44.5,35.6,58,41,18,17.72,17.72,6,1,9,0.00
2013-7-13,83.8,71.4,60.3,55.4,49.0,41.0,58,47,23,17.72,17.72,5,0,7,0.00
2013-7-14,91.2,77.1,66.9,57.2,53.5,46.4,57,46,23,17.72,17.72,4,0,5,0.00
2013-7-15,94.1,78.5,66.6,60.8,49.9,41.0,57,41,17,17.72,17.72,6,0,8,0.00
2013-7-16,93.2,78.9,66.6,57.2,49.4,41.0,57,39,17,17.72,17.72,6,1,11,0.00
2013-7-17,97.3,80.3,66.4,59.0,50.8,41.0,57,40,16,17.72,17.72,6,0,13,0.00
2013-7-18,95.4,78.2,69.3,62.6,55.2,42.8,57,47,19,17.72,17.72,5,0,8,0.00
2013-7-19,95.5,81.6,70.7,60.8,53.8,41.0,56,42,17,17.72,17.72,8,1,13,0.00
2013-7-20,90.1,77.3,67.8,57.2,51.1,42.8,57,42,20,17.72,17.72,6,1,13,0.00
2013-7-21,84.6,72.6,63.0,53.6,46.7,35.6,57,43,19,17.72,17.72,6,0,7,0.00
2013-7-22,79.5,69.9,62.8,55.4,50.7,46.4,57,51,37,17.72,17.72,4,0,8,0.00
2013-7-23,75.2,67.5,63.3,55.4,51.1,48.2,58,56,49,17.72,17.72,2,0,3,0.00
2013-7-24,80.8,69.6,57.2,57.2,44.4,32.0,57,42,24,17.72,17.72,7,1,13,0.00
2013-7-25,77.4,63.2,50.0,48.2,38.2,32.0,58,42,21,17.72,17.72,6,0,8,0.00
2013-7-26,80.6,68.1,61.7,53.6,47.6,42.8,58,49,30,17.72,17.72,5,0,8,0.00
2013-7-27,86.4,70.5,57.9,51.8,43.3,28.4,58,42,13,17.72,17.72,5,0,8,0.00
2013-7-28,85.5,70.6,60.1,55.4,49.5,41.0,57,48,23,17.72,17.72,7,1,8,0.00
2013-7-29,84.9,71.0,64.6,57.2,50.8,42.8,57,50,24,17.72,17.72,10,1,14,0.00
2013-7-30,81.5,68.6,57.9,50.0,41.7,30.3,58,41,17,17.72,17.72,7,1,10,0.00
2013-7-31,85.5,69.0,55.6,48.2,40.9,27.9,58,40,13,17.72,17.72,5,0,6,0.00
2013-8-1,85.3,69.0,59.2,53.6,45.0,35.6,57,45,19,17.72,17.72,10,1,15,0.00
2013-8-7,54.7,54.7,54.7,41.0,41.0,41.0,57,57,57,0.00,40.00,0,0,0,0.00
2013-8-8,83.5,79.2,74.8,51.8,51.3,50.0,45,38,31,17.72,17.72,5,4,8,0.00
2013-8-9,71.4,71.4,71.4,55.4,55.4,55.4,56,56,56,0.00,40.00,0,0,6,0.00
2013-8-11,50.9,50.7,50.7,35.6,35.6,35.6,58,58,58,17.72,17.72,0,0,0,0.00
2013-8-13,68.4,66.1,64.6,51.8,50.0,48.2,56,55,54,0.00,40.00,0,0,0,0.00
2013-8-14,60.4,60.0,59.7,39.2,38.6,37.4,46,46,45,17.72,17.72,2,2,6,0.00
2013-8-18,56.1,55.9,55.6,41.0,41.0,41.0,57,57,57,17.72,17.72,0,0,0,0.00
2013-8-20,84.0,84.0,84.0,37.4,37.4,37.4,19,19,19,0.00,40.00,0,0,6,0.00
2013-8-21,88.2,72.0,59.5,51.8,45.2,33.8,57,42,15,0.00,40.00,4,0,9,0.00
2013-8-22,82.8,77.8,70.5,50.0,47.0,42.8,50,36,25,17.72,17.72,3,1,9,0.00
2013-8-23,79.5,69.4,57.2,53.6,38.6,21.7,55,36,12,0.00,40.00,6,1,10,0.00
2013-8-24,80.4,62.7,48.4,41.0,33.0,21.4,58,38,12,0.00,40.00,7,0,10,0.00
2013-8-25,50.0,49.8,49.8,35.6,35.6,35.6,58,58,58,17.72,17.72,0,0,0,0.00
2013-8-26,79.7,73.2,67.8,57.2,52.8,46.4,56,49,33,17.72,17.72,3,0,5,0.00
2013-8-27,85.6,73.2,56.3,55.4,50.3,35.6,58,46,21,0.00,40.00,4,0,6,0.00
2013-8-28,89.4,73.3,65.8,55.4,50.0,39.2,57,46,18,17.72,17.72,9,0,13,0.00
2013-8-29,71.2,66.4,63.3,51.8,49.5,46.4,57,54,45,17.72,17.72,6,0,10,0.00
2013-8-30,86.4,72.0,63.0,53.6,47.6,39.2,56,45,20,17.72,17.72,5,0,8,0.00
2013-8-31,83.7,72.5,67.5,59.0,53.6,50.0,56,51,32,17.72,17.72,7,1,10,0.00
2013-9-1,88.0,74.7,66.7,59.0,53.5,44.6,56,48,23,17.72,17.72,5,0,8,0.00
2013-9-2,76.8,71.1,68.2,59.0,54.2,51.8,56,55,45,17.72,17.72,5,0,7,0.00
2013-9-3,77.4,69.5,62.8,53.6,49.2,42.8,57,49,32,17.72,17.72,3,0,4,0.00
2013-9-4,79.5,67.5,56.3,48.2,40.6,26.3,58,41,15,17.72,17.72,7,1,10,0.00
2013-9-5,70.5,61.3,46.8,46.4,32.8,15.5,56,39,14,17.72,17.72,5,1,10,0.00
2013-9-6,69.6,54.8,40.6,37.4,27.9,16.8,59,41,15,17.72,17.72,5,0,11,0.00
2013-9-7,78.4,60.1,47.5,44.6,35.5,23.0,59,44,15,17.72,17.72,4,0,6,0.00
2013-9-8,66.7,59.1,45.9,46.4,32.0,16.9,57,39,18,17.72,17.72,9,1,15,0.00
2013-9-9,73.6,55.7,39.9,39.2,28.4,18.3,60,41,13,17.72,17.72,6,1,10,0.00
2013-9-10,69.6,59.2,50.0,50.0,43.3,35.6,58,56,48,17.72,17.72,3,0,4,0.00
2013-9-11,93.9,75.0,63.5,59.0,50.4,42.8,57,46,18,17.72,17.72,7,0,17,0.00
2013-9-12,80.4,70.0,66.2,59.0,52.8,50.0,56,54,44,17.72,17.72,6,0,9,0.00
2013-9-13,74.5,65.1,57.4,53.6,46.2,39.2,57,51,33,17.72,17.72,6,1,11,0.00
2013-9-14,66.2,58.0,48.4,39.2,36.4,30.1,58,46,29,17.72,17.72,6,1,13,0.00
2013-9-15,73.6,56.9,42.4,42.8,32.9,21.8,60,44,16,17.72,17.72,8,0,14,0.00
2013-9-16,65.7,55.6,42.4,44.6,33.7,21.0,58,45,25,17.72,17.72,9,1,13,0.00
2013-9-17,65.8,50.2,36.3,35.6,25.5,16.2,60,42,15,17.72,17.72,4,0,8,0.00
2013-9-18,72.5,54.7,40.3,39.2,29.8,19.2,60,44,14,17.72,17.72,6,0,8,0.00
2013-9-19,78.3,58.8,44.2,42.8,33.5,20.5,60,44,13,17.72,17.72,5,0,6,0.00
2013-9-20,77.5,60.9,47.3,46.4,36.6,25.4,59,45,15,17.72,17.72,7,1,9,0.00
2013-9-21,76.5,62.9,53.2,50.0,42.3,32.0,58,48,22,17.72,17.72,8,2,15,0.00
2013-9-22,70.3,61.7,49.3,50.0,38.7,25.9,58,44,23,17.72,17.72,9,1,12,0.00
2013-9-23,59.0,51.5,46.6,29.0,24.1,19.8,47,35,25,17.72,17.72,8,2,17,0.00
2013-9-24,65.5,53.6,46.8,35.6,25.6,20.5,54,35,20,17.72,17.72,7,2,12,0.00
2013-9-25,66.2,55.3,44.4,35.6,31.3,26.4,60,42,24,17.72,17.72,7,1,13,0.00
2013-9-26,69.1,54.5,41.0,37.4,31.2,24.5,59,44,20,17.72,17.72,6,0,9,0.00
2013-9-27,70.9,57.7,48.6,41.0,35.9,28.2,58,46,22,17.72,17.72,7,0,9,0.00
2013-9-28,73.6,57.3,45.3,42.8,34.9,27.3,59,46,18,17.72,17.72,10,1,13,0.00
2013-9-29,73.4,57.4,47.8,42.8,34.9,28.2,59,46,21,17.72,17.72,8,1,15,0.00
2013-9-30,72.0,56.0,44.6,41.0,34.2,26.5,59,47,19,17.72,17.72,7,0,8,0.00
2013-10-1,75.9,59.2,45.3,44.6,35.4,24.3,60,46,15,17.72,17.72,6,0,11,0.00
2013-10-2,78.6,62.1,48.7,44.6,38.3,32.0,59,45,21,17.72,17.72,8,1,14,0.00
2013-10-3,76.3,59.9,47.3,42.8,33.5,19.4,59,43,13,17.72,17.72,5,0,8,0.00
2013-10-4,71.1,56.7,44.6,42.8,36.2,29.1,59,48,22,31.01,17.72,5,0,8,0.00
2013-10-5,68.0,61.1,56.8,42.8,35.9,20.8,56,42,17,31.01,29.65,4,0,5,0.00
2013-10-6,58.3,53.3,49.3,42.8,32.9,20.4,59,48,26,30.59,20.11,6,1,9,0.00
2013-10-7,66.6,56.2,50.4,50.0,41.4,35.6,59,58,52,21.47,17.72,6,0,11,0.00
2013-10-8,62.8,52.4,38.5,38.2,26.5,12.4,60,40,16,23.83,20.11,7,1,13,0.00
2013-10-9,62.2,46.4,33.3,33.8,25.8,18.5,62,48,19,23.12,20.11,5,0,8,0.00
2013-10-10,66.0,50.7,39.7,37.4,30.5,24.6,60,48,23,20.29,19.87,5,0,6,0.00
2013-10-11,72.0,54.5,44.8,41.0,32.7,18.7,60,47,14,20.29,18.57,5,0,6,0.00
2013-10-12,57.6,50.1,40.3,42.8,35.6,28.0,61,57,50,17.72,17.72,7,1,10,0.00
2013-10-13,60.4,51.7,44.2,37.4,34.0,30.4,60,51,34,17.72,17.72,4,0,5,0.00
2013-10-14,67.5,54.9,43.3,42.8,34.8,29.6,60,48,25,17.72,17.72,7,1,9,0.00
2013-10-15,67.3,59.4,53.1,42.8,39.4,33.4,58,48,29,25.93,17.72,6,1,8,0.00
2013-10-16,64.6,57.0,49.6,41.0,36.8,28.0,59,48,27,27.73,20.29,6,1,8,0.00
2013-10-17,71.2,57.3,48.2,41.0,33.5,21.7,59,45,17,31.01,20.29,8,1,14,0.00
2013-10-18,66.0,56.1,48.6,41.0,32.6,18.2,59,43,23,29.47,22.18,6,2,11,0.00
2013-10-19,66.9,51.8,36.3,33.8,26.0,16.8,61,40,15,23.12,20.11,8,1,13,0.00
2013-10-20,61.2,50.7,40.3,35.6,22.8,10.1,60,37,16,20.23,19.87,8,2,14,0.00
2013-10-21,65.1,47.7,32.7,33.8,24.6,18.4,62,44,18,22.18,17.72,7,1,9,0.00
2013-10-22,55.8,46.2,36.0,39.2,31.5,24.3,62,56,42,20.35,19.87,4,0,6,0.00
2013-10-23,55.9,43.1,34.3,32.0,20.7,9.6,62,44,17,17.72,17.72,7,0,8,0.00
2013-10-24,52.3,42.5,33.3,23.9,16.7,10.0,60,38,21,17.72,17.72,7,2,13,0.00
2013-10-25,49.5,38.1,30.6,24.4,15.5,4.8,62,43,19,17.72,17.72,9,1,14,0.00
2013-10-26,50.7,36.0,27.7,20.5,16.4,7.5,60,47,19,17.72,17.72,8,0,14,0.00
2013-10-27,56.1,42.1,30.4,25.7,19.0,5.9,58,42,17,17.72,17.72,7,1,12,0.00
2013-10-28,54.1,38.5,27.7,25.5,14.7,3.0,61,41,20,17.72,17.72,10,1,17,0.00
2013-10-29,47.7,32.2,21.4,15.1,8.0,-2.5,61,40,17,17.72,17.72,7,0,9,0.00
2013-10-30,51.4,36.6,27.0,20.6,14.8,8.6,59,42,24,17.72,17.72,7,1,9,0.00
2013-10-31,45.1,38.4,29.5,32.0,25.2,17.6,61,59,47,17.72,17.72,4,0,4,0.00
2013-11-1,66.9,58.1,45.1,48.2,38.6,22.6,60,49,26,17.72,17.72,11,3,15,0.00
2013-11-2,65.1,48.3,36.5,37.4,28.6,19.3,61,49,18,17.72,17.72,8,1,13,0.00
2013-11-3,41.7,36.4,26.4,23.9,6.7,-3.9,53,30,18,17.72,17.72,10,2,17,0.00
2013-11-4,42.1,30.1,21.2,9.3,4.0,-2.1,56,35,18,17.72,17.72,6,0,8,0.00
2013-11-5,47.3,33.2,21.7,18.7,11.8,4.7,59,44,19,17.72,17.72,8,1,11,0.00
2013-11-6,57.9,44.3,31.3,32.0,23.2,17.3,58,45,26,17.72,17.72,8,2,13,0.00
2013-11-7,56.7,49.0,39.4,42.8,30.7,11.7,58,49,33,17.72,17.72,8,1,11,0.00
2013-11-8,45.3,36.3,26.8,23.2,11.4,6.7,57,37,25,17.72,17.72,10,2,18,0.00
2013-11-9,45.3,37.7,32.5,14.9,7.4,2.4,42,29,20,17.72,17.72,9,2,18,0.00
2013-11-10,42.4,36.9,34.0,28.3,23.5,13.9,62,58,40,17.72,17.72,7,0,10,0.00
2013-11-11,49.3,40.0,35.6,24.2,13.9,5.9,61,36,19,17.72,17.72,9,2,13,0.00
2013-11-12,41.5,31.6,25.7,21.7,5.6,-3.2,58,34,25,17.72,17.72,11,4,17,0.00
2013-11-13,32.7,26.8,21.7,4.0,-2.9,-8.0,40,28,20,17.72,17.72,9,2,20,0.00
2013-11-14,47.3,31.4,24.6,15.1,8.9,3.3,58,40,22,17.72,17.72,8,1,13,0.00
2013-11-15,53.1,34.3,23.4,18.7,12.2,4.0,60,44,16,17.72,17.72,4,0,6,0.00
2013-11-16,56.7,38.3,28.8,18.3,14.3,7.0,57,41,15,17.72,17.72,5,0,8,0.00
2013-11-17,43.3,36.3,26.6,30.4,23.3,14.6,61,59,52,17.72,17.72,0,0,2,0.00
2013-11-18,59.7,49.7,43.2,41.0,27.8,14.5,60,45,25,17.72,17.72,11,2,22,0.00
2013-11-19,44.2,35.0,28.6,16.4,4.4,-1.1,46,28,21,17.72,17.72,16,5,22,0.00
2013-11-20,38.1,29.3,21.2,6.3,0.5,-6.5,52,30,19,17.72,17.72,10,2,15,0.00
2013-11-21,47.3,29.7,16.7,9.8,5.0,-1.2,60,38,17,17.72,17.72,5,0,8,0.00
2013-11-22,37.9,33.8,29.5,25.7,17.5,9.0,61,51,41,17.72,17.72,0,0,0,0.00
2013-11-23,39.6,33.8,22.8,27.3,11.6,-1.6,62,42,19,17.72,17.72,10,3,20,0.00
2013-11-24,23.7,18.9,13.6,7.5,-8.9,-16.7,52,29,22,17.72,17.72,14,6,28,0.00
2013-11-25,29.1,20.4,12.0,-0.5,-10.2,-18.1,33,25,20,17.72,17.72,8,2,11,0.00
2013-11-26,36.1,30.3,24.8,20.4,13.8,-1.1,60,51,32,17.72,17.72,4,0,6,0.00
2013-11-27,41.7,35.4,32.7,29.3,23.0,15.2,62,60,46,17.72,17.72,9,1,17,0.00
2013-11-28,34.5,25.8,14.4,15.7,-0.3,-11.8,46,33,21,17.72,17.72,10,4,17,0.00
2013-11-29,27.9,17.7,10.2,1.6,-5.3,-12.2,55,37,21,17.72,17.72,6,1,10,0.00
2013-11-30,28.4,19.0,6.1,1.6,-4.7,-9.9,50,36,21,17.72,17.72,9,1,11,0.00
2013-12-1,39.6,32.9,27.1,18.4,10.4,1.4,52,39,30,17.72,17.72,5,0,8,0.00
2013-12-2,46.0,35.7,33.1,23.0,20.1,18.2,60,53,37,17.72,17.72,5,0,6,0.00
2013-12-3,45.9,36.6,30.0,24.2,19.6,11.3,62,51,27,17.72,17.72,6,0,9,0.00
2013-12-4,40.1,32.3,26.1,18.6,11.2,8.5,59,42,29,17.72,17.72,10,2,16,0.00
2013-12-5,35.8,33.7,25.3,23.7,20.1,13.0,62,57,45,17.72,17.72,0,0,4,0.00
2013-12-6,46.4,39.6,34.5,30.0,21.6,8.7,61,49,32,17.72,17.72,6,0,13,0.00
2013-12-7,36.9,31.3,21.2,19.6,4.5,-6.3,56,33,20,17.72,17.72,9,2,17,0.00
2013-12-8,30.7,25.4,20.7,4.2,-2.6,-8.3,47,30,20,17.72,17.72,5,0,8,0.00
2013-12-9,28.9,26.7,23.2,16.8,10.4,-1.8,61,51,29,17.72,17.72,9,2,13,0.00
2013-12-10,34.3,26.5,16.9,20.2,10.0,-4.6,62,51,29,17.72,17.72,6,0,10,0.00
2013-12-11,31.8,21.3,10.9,10.5,1.6,-5.6,60,44,23,17.72,17.72,8,1,19,0.00
2013-12-12,19.8,12.1,2.5,1.2,-10.1,-26.1,50,38,22,17.72,17.72,7,1,10,0.00
2013-12-13,23.5,10.1,0.7,2.7,-15.5,-27.7,47,30,24,17.72,17.72,8,2,15,0.00
2013-12-14,17.4,9.3,1.9,-7.9,-16.2,-18.7,37,31,23,17.72,17.72,7,1,13,0.00
2013-12-15,31.6,20.4,11.3,13.7,0.8,-18.6,56,43,24,17.72,17.72,9,1,11,0.00
2013-12-16,23.2,14.3,4.1,8.3,-8.6,-22.6,56,37,22,17.72,17.72,10,2,15,0.00
2013-12-17,15.4,6.9,-7.1,-1.9,-17.7,-32.4,49,31,26,17.72,17.72,4,0,6,0.00
2013-12-18,31.8,20.4,12.9,5.9,2.3,-1.9,57,46,31,17.72,17.72,8,1,12,0.00
2013-12-19,36.7,27.6,19.0,16.6,10.3,5.1,60,49,30,17.72,17.72,5,0,8,0.00
2013-12-20,39.7,34.2,30.4,22.3,18.1,14.9,59,52,37,17.72,17.72,0,0,0,0.00
2013-12-21,43.7,37.0,34.5,25.7,23.3,21.7,61,57,45,17.72,17.72,0,0,0,0.00
2013-12-22,38.7,34.2,31.8,26.5,22.0,19.9,62,61,59,17.72,17.72,8,1,11,0.00
2013-12-23,35.4,33.4,31.3,23.1,21.0,18.0,61,60,51,17.72,17.72,4,0,6,0.00
2013-12-24,34.3,26.9,14.5,18.3,3.7,-7.9,53,38,25,17.72,17.72,6,0,13,0.00
2013-12-25,20.3,12.3,5.2,-6.4,-11.4,-15.8,39,34,22,17.72,17.72,9,1,15,0.00
2013-12-26,25.0,16.7,12.4,8.4,-0.4,-8.1,58,47,39,17.72,17.72,3,0,4,0.00
2013-12-27,34.7,20.4,10.0,10.7,3.7,-1.5,59,49,27,17.72,17.72,7,0,10,0.00
2013-12-28,38.8,26.9,12.4,21.3,11.0,0.4,60,52,35,17.72,17.72,6,0,6,0.00
2013-12-29,35.2,30.6,24.3,21.6,17.8,13.1,62,59,52,17.72,17.72,0,0,0,0.00
2013-12-30,35.8,25.3,6.3,22.7,7.3,-14.3,62,47,32,17.72,17.72,8,2,15,0.00
2013-12-31,19.4,8.8,-0.6,-2.9,-12.0,-20.3,47,38,25,17.72,17.72,5,0,8,0.00
2014-1-1,24.3,9.1,-4.5,-2.8,-12.2,-19.9,47,38,24,17.72,17.72,11,1,15,0.00
2014-1-2,13.5,8.7,0.9,-9.5,-13.6,-20.7,35,35,35,17.72,17.72,6,1,9,0.00